HST
1 20580U 90037B   24110.91025451  .00016475  00000-0  80481-3 0  9996
2 20580  28.4695  15.3361 0002664 113.1373 246.9500 15.16827025668178
ISS (ZARYA)
1 25544U 98067A   24111.14160880  .00026599  00000-0  46456-3 0  9996
2 25544  51.6399 243.2230 0004811  83.2147 282.8994 15.50471139449544
CXO
1 25867U 99040B   24112.33278554  .00000940  00000-0  00000+0 0  9999
2 25867  39.9529 159.3198 8942329 292.4515   0.0893  0.37815290 25505